Volver al catálogo

COSMOS 1024 DEB

LostHEO
NORAD 26974·DEBRIS·🇷🇺 Russia

Lanzado Jun 28, 1978 desde Plesetsk Cosmodrome

Loading…

Próximos Pases (próximas 24 horas)

TLE

ObsoletoSource: Space-Track

Época: Aug 20, 2007, 01:38 UTC

1 26974U 78066E   07232.06832093 +.00000031 +00000-0 +10000-3 0  9998
2 26974 066.7843 152.2399 5640273 119.8730 307.4886 02.04425883093410

Sigue COSMOS 1024 DEB en tiempo real con AllMySat

Download on the App Store